Terminal Aerodrome Forecast
Issued by NWS

Home | Current Version | Previous Version | Text Only | Print | Product List | Glossary Off
Versions: 1 2 3 4 5 6 7 8 9 10 11 12 13 14 15 16 17 18 19 20 21 22 23 24 25 26 27 28 29 30 31 32 33 34 35 36 37 38

118
FTUS43 KLOT 300837 AAA
TAFMDW
TAF AMD
KMDW 300837Z 3009/3106 06006KT P6SM VCSH FEW015 BKN025
      TEMPO 3009/3012 OVC015
     FM301600 06010KT 6SM -SHRA VCTS SCT025 BKN035CB
      TEMPO 3016/3018 4SM SHRA OVC025
     FM302000 06010KT P6SM BKN040
     FM310200 04006KT 6SM BR SCT040=

USA.gov is the U.S. government's official web portal to all federal, state and local government web resources and services.